CHINASAT 6A (ZX 6A)

Last updated on Mon Apr 25 2022 00:02:38 GMT+0000 (Coordinated Universal Time)

1 37150U 10042A 22114.53023911 -.00000205 00000+0 00000+0 0 9993 2 37150 0.3119 96.7922 0004909 309.9112 283.1502 0.99696221 42779
UTC large
Height (km)
Speed (km/s)
/
Latitude / Longitude
Inclination (degrees)
Orbital Period (minutes)
Azimuth
Elevation
Range (km)
Doppler Factor

Next 0 passes for location: London (51.5072 / 0.1276)

Sorry there are no passes over London.